This is the latest recevied weather packets stored in our database for station/object CE3SUR-16. If no packets are shown the sender has not sent any weather packets the latest 10 day(s).
| Time | Temp. | Humidity | Pressure | Rain* | Wind** | Luminosity | Snow |
|---|---|---|---|---|---|---|---|
| 1777666116 | 20.56° C | 99% | 960.2 hPa | - | - | - | - |
| 1777664316 | 20° C | 99% | 960.3 hPa | - | - | - | - |
| 1777662515 | 20° C | 99% | 960 hPa | - | - | - | - |
| 1777660715 | 19.44° C | 99% | 959.6 hPa | - | - | - | - |
| 1777658915 | 18.33° C | 99% | 959.6 hPa | - | - | - | - |
| 1777657153 | 17.22° C | 99% | 959.6 hPa | - | - | - | - |
| 1777657114 | 17.22° C | 99% | 959.6 hPa | - | - | - | - |
| 1777655316 | 17.22° C | 99% | 959.8 hPa | - | - | - | - |
| 1777653516 | 16.11° C | 99% | 960.2 hPa | - | - | - | - |
| 1777651716 | 15° C | 99% | 960.6 hPa | - | - | - | - |
| 1777649916 | 14.44° C | 99% | 960.5 hPa | - | - | - | - |
| 1777648116 | 13.89° C | 99% | 960.3 hPa | - | - | - | - |
| 1777646315 | 14.44° C | 99% | 960.3 hPa | - | - | - | - |
| 1777644515 | 14.44° C | 99% | 960.6 hPa | - | - | - | - |
| 1777642715 | 14.44° C | 99% | 960.3 hPa | - | - | - | - |
| 1777640915 | 14.44° C | 99% | 960 hPa | - | - | - | - |
| 1777639114 | 14.44° C | 99% | 959.7 hPa | - | - | - | - |
| 1777637314 | 14.44° C | 99% | 959.3 hPa | - | - | - | - |
| 1777635514 | 13.89° C | 99% | 958.7 hPa | - | - | - | - |
| 1777633716 | 13.89° C | 99% | 958.4 hPa | - | - | - | - |
| 1777631915 | 13.89° C | 99% | 958.2 hPa | - | - | - | - |
| 1777630115 | 13.89° C | 99% | 958.1 hPa | - | - | - | - |
| 1777628315 | 13.89° C | 99% | 957.8 hPa | - | - | - | - |
| 1777626515 | 14.44° C | 99% | 957.5 hPa | - | - | - | - |
| 1777624715 | 13.89° C | 99% | 957.7 hPa | - | - | - | - |
* Rain since midnight (hover to see other rain measurements)
** Current wind speed in m/s (hover to see current wind gust speed)